| time (UTC) | temp F | wind direction | speed knots | gust knots | rain 1hr in | rain 24hr in | rain mn in | humidity % | barometer mb |
| 20260510164533 | 76 | 69 | 0.9 | 7.0 | 0.00 | 0.00 | 0.00 | 50 | 1006.3 |
| 20260510163032 | 75 | 88 | 1.7 | 8.7 | 0.00 | 0.00 | 0.00 | 52 | 1006.3 |
| 20260510161527 | 75 | 78 | 0.9 | 8.7 | 0.00 | 0.00 | 0.00 | 53 | 1006.3 |
| 20260510160023 | 74 | 27 | 2.6 | 7.8 | 0.00 | 0.00 | 0.00 | 53 | 1006.3 |
| 20260510154520 | 74 | 344 | 3.5 | 7.0 | 0.00 | 0.00 | 0.00 | 53 | 1006.4 |
| 20260510153018 | 73 | 76 | 1.7 | 6.1 | 0.00 | 0.00 | 0.00 | 57 | 1006.4 |
| 20260510151512 | 71 | 316 | 2.6 | 7.0 | 0.00 | 0.00 | 0.00 | 61 | 1006.5 |
| 20260510150007 | 70 | 346 | 1.7 | 7.0 | 0.00 | 0.00 | 0.00 | 63 | 1006.7 |
| 20260510144504 | 69 | 93 | 1.7 | 5.2 | 0.00 | 0.00 | 0.00 | 65 | 1006.9 |
| 20260510143100 | 68 | 347 | 1.7 | 5.2 | 0.00 | 0.00 | 0.00 | 68 | 1007.1 |
| 20260510141556 | 67 | 42 | 0.0 | 4.3 | 0.00 | 0.00 | 0.00 | 71 | 1006.9 |
| 20260510140021 | 65 | 5 | 0.0 | 2.6 | 0.00 | 0.00 | 0.00 | 74 | 1006.8 |
| 20260510134518 | 63 | 355 | 0.9 | 3.5 | 0.00 | 0.00 | 0.00 | 76 | 1006.8 |
| 20260510133011 | 62 | 338 | 0.0 | 3.5 | 0.00 | 0.00 | 0.00 | 78 | 1006.8 |
| 20260510131508 | 60 | 141 | 0.0 | 0.0 | 0.00 | 0.00 | 0.00 | 82 | 1006.8 |
| 20260510130009 | 58 | 126 | 0.0 | 0.0 | 0.00 | 0.00 | 0.00 | 85 | 1006.9 |
| 20260510124613 | 57 | 236 | 0.0 | 0.0 | 0.00 | 0.00 | 0.00 | 87 | 1007.0 |
| 20260510123055 | 56 | 237 | 0.0 | 0.0 | 0.00 | 0.00 | 0.00 | 89 | 1006.7 |
| 20260510121551 | 55 | 237 | 0.0 | 2.6 | 0.00 | 0.00 | 0.00 | 90 | 1006.2 |
| 20260510120049 | 54 | 198 | 0.0 | 0.0 | 0.00 | 0.00 | 0.00 | 92 | 1006.2 |
| 20260510114545 | 54 | 93 | 0.0 | 0.0 | 0.00 | 0.00 | 0.00 | 92 | 1006.3 |
| 20260510113042 | 53 | 92 | 0.0 | 0.0 | 0.00 | 0.00 | 0.00 | 92 | 1006.3 |
| 20260510111541 | 52 | 90 | 0.0 | 2.6 | 0.00 | 0.00 | 0.00 | 92 | 1006.0 |
| 20260510110039 | 52 | 113 | 0.0 | 0.0 | 0.00 | 0.00 | 0.00 | 92 | 1006.0 |
| 20260510104537 | 52 | 120 | 0.0 | 0.9 | 0.00 | 0.00 | 0.00 | 91 | 1005.4 |
| 20260510103035 | 51 | 121 | 0.0 | 1.7 | 0.00 | 0.00 | 0.00 | 91 | 1005.4 |
| 20260510101635 | 51 | 114 | 0.0 | 0.9 | 0.00 | 0.00 | 0.00 | 91 | 1005.6 |
| 20260510100034 | 51 | 114 | 0.0 | 0.9 | 0.00 | 0.00 | 0.00 | 91 | 1005.6 |
| 20260510094634 | 51 | 110 | 0.0 | 1.7 | 0.00 | 0.00 | 0.00 | 91 | 1005.1 |
| 20260510093050 | 51 | 76 | 0.9 | 5.2 | 0.00 | 0.00 | 0.00 | 91 | 1005.1 |
| 20260510091537 | 51 | 83 | 0.9 | 5.2 | 0.00 | 0.00 | 0.00 | 91 | 1004.8 |
| 20260510090034 | 51 | 88 | 2.6 | 7.0 | 0.00 | 0.00 | 0.00 | 91 | 1005.4 |
| 20260510090029 | 51 | 87 | 2.6 | 7.0 | 0.00 | 0.00 | 0.00 | 91 | 1005.4 |
| 20260510084528 | 50 | 99 | 1.7 | 8.7 | 0.00 | 0.00 | 0.00 | 90 | 1005.4 |
| 20260510083027 | 50 | 131 | 0.0 | 0.0 | 0.00 | 0.00 | 0.00 | 89 | 1004.6 |
| 20260510081623 | 51 | 170 | 0.0 | 0.0 | 0.00 | 0.00 | 0.00 | 89 | 1004.4 |
| 20260510080022 | 51 | 170 | 0.0 | 0.0 | 0.00 | 0.00 | 0.00 | 89 | 1004.3 |
| 20260510074521 | 51 | 170 | 0.0 | 0.0 | 0.00 | 0.00 | 0.00 | 89 | 1004.7 |
| 20260510073021 | 51 | 170 | 0.0 | 0.0 | 0.00 | 0.00 | 0.00 | 89 | 1004.6 |
| 20260510071518 | 51 | 171 | 0.0 | 0.0 | 0.00 | 0.00 | 0.00 | 88 | 1004.2 |
| 20260510070022 | 51 | 235 | 0.0 | 0.0 | 0.00 | 0.00 | 0.00 | 88 | 1004.0 |
| 20260510064514 | 51 | 235 | 0.0 | 0.0 | 0.00 | 0.00 | 0.00 | 88 | 1003.7 |
| 20260510063013 | 52 | 235 | 0.0 | 0.0 | 0.00 | 0.00 | 0.00 | 88 | 1004.1 |
| 20260510061510 | 52 | 235 | 0.0 | 0.0 | 0.00 | 0.00 | 0.00 | 87 | 1004.3 |
| 20260510060010 | 52 | 235 | 0.0 | 0.0 | 0.00 | 0.00 | 0.00 | 87 | 1004.1 |
| 20260510054507 | 53 | 235 | 0.0 | 0.0 | 0.00 | 0.00 | 0.00 | 87 | 1004.2 |
| 20260510053030 | 53 | 235 | 0.0 | 0.0 | 0.00 | 0.00 | 0.00 | 87 | 1004.3 |
| 20260510051559 | 54 | 235 | 0.0 | 0.9 | 0.00 | 0.00 | 0.00 | 87 | 1004.7 |
| 20260510050058 | 54 | 235 | 0.0 | 0.0 | 0.00 | 0.00 | 0.00 | 86 | 1004.7 |
| 20260510044555 | 54 | 235 | 0.0 | 0.9 | 0.00 | 0.00 | 0.00 | 86 | 1004.5 |
| 20260510043102 | 55 | 235 | 0.0 | 0.0 | 0.00 | 0.00 | 0.00 | 85 | 1004.7 |
| 20260510041551 | 55 | 238 | 0.0 | 0.9 | 0.00 | 0.00 | 0.00 | 86 | 1004.9 |
| 20260510034549 | 55 | 238 | 0.0 | 2.6 | 0.00 | 0.00 | 0.00 | 86 | 1004.7 |
| 20260510033100 | 55 | 234 | 0.0 | 0.0 | 0.00 | 0.00 | 0.00 | 85 | 1004.7 |
| 20260510031546 | 55 | 229 | 0.0 | 0.0 | 0.00 | 0.00 | 0.00 | 85 | 1004.5 |
| 20260510030039 | 55 | 229 | 0.0 | 0.0 | 0.00 | 0.00 | 0.00 | 85 | 1004.2 |
| 20260510024541 | 56 | 229 | 0.0 | 0.0 | 0.00 | 0.00 | 0.00 | 84 | 1004.4 |
| 20260510023036 | 56 | 229 | 0.0 | 0.9 | 0.00 | 0.00 | 0.00 | 84 | 1004.4 |
| 20260510021541 | 56 | 229 | 0.0 | 0.9 | 0.00 | 0.00 | 0.00 | 84 | 1004.2 |
| 20260510020032 | 56 | 228 | 0.0 | 0.0 | 0.00 | 0.00 | 0.00 | 83 | 1004.3 |
| 20260510014533 | 57 | 242 | 0.0 | 3.5 | 0.00 | 0.00 | 0.00 | 83 | 1004.3 |
| 20260510013030 | 56 | 226 | 0.9 | 3.5 | 0.00 | 0.00 | 0.00 | 83 | 1004.1 |
| 20260510011539 | 57 | 229 | 0.0 | 1.7 | 0.00 | 0.00 | 0.00 | 83 | 1004.0 |
| 20260510010027 | 57 | 236 | 1.7 | 4.3 | 0.00 | 0.00 | 0.00 | 83 | 1004.1 |
| 20260510004530 | 57 | 240 | 1.7 | 3.5 | 0.00 | 0.00 | 0.00 | 82 | 1004.0 |
| 20260510003025 | 58 | 242 | 0.9 | 1.7 | 0.00 | 0.00 | 0.00 | 80 | 1003.7 |
| 20260510001523 | 58 | 242 | 0.0 | 2.6 | 0.00 | 0.00 | 0.00 | 79 | 1003.9 |
| 20260510000028 | 59 | 232 | 0.9 | 1.7 | 0.00 | 0.00 | 0.00 | 76 | 1003.6 |
| 20260509234521 | 60 | 229 | 0.0 | 0.0 | 0.00 | 0.00 | 0.00 | 74 | 1003.8 |
| 20260509233021 | 60 | 229 | 0.0 | 0.0 | 0.00 | 0.00 | 0.00 | 73 | 1003.8 |
| 20260509231550 | 60 | 229 | 0.0 | 0.0 | 0.00 | 0.00 | 0.00 | 73 | 1003.6 |
| 20260509230054 | 60 | 229 | 0.0 | 1.7 | 0.00 | 0.00 | 0.00 | 74 | 1003.3 |
| 20260509224545 | 59 | 229 | 0.0 | 0.9 | 0.00 | 0.00 | 0.00 | 77 | 1003.4 |
| 20260509223045 | 59 | 228 | 0.0 | 1.7 | 0.00 | 0.00 | 0.00 | 77 | 1003.7 |
| 20260509221545 | 58 | 237 | 0.0 | 1.7 | 0.00 | 0.00 | 0.00 | 78 | 1003.6 |
| 20260509220046 | 58 | 220 | 0.0 | 2.6 | 0.00 | 0.00 | 0.00 | 80 | 1003.8 |
| 20260509214559 | 58 | 205 | 0.0 | 0.9 | 0.00 | 0.00 | 0.00 | 79 | 1004.1 |
| 20260509213044 | 59 | 103 | 0.0 | 3.5 | 0.00 | 0.00 | 0.00 | 80 | 1003.9 |
| 20260509211542 | 59 | 108 | 0.0 | 0.0 | 0.00 | 0.00 | 0.00 | 77 | 1003.8 |
| 20260509210043 | 60 | 108 | 0.0 | 1.7 | 0.00 | 0.00 | 0.00 | 74 | 1003.9 |
| 20260509204638 | 60 | 88 | 1.7 | 5.2 | 0.00 | 0.00 | 0.00 | 72 | 1003.9 |
| 20260509203048 | 61 | 82 | 1.7 | 6.1 | 0.00 | 0.00 | 0.00 | 72 | 1003.8 |
| 20260509201538 | 59 | 142 | 1.7 | 7.8 | 0.00 | 0.00 | 0.00 | 76 | 1003.8 |
| 20260509200038 | 59 | 110 | 1.7 | 7.0 | 0.00 | 0.00 | 0.00 | 76 | 1003.6 |
| 20260509194534 | 59 | 76 | 3.5 | 9.6 | 0.00 | 0.00 | 0.00 | 75 | 1003.9 |
| 20260509193032 | 59 | 122 | 1.7 | 4.3 | 0.00 | 0.00 | 0.00 | 76 | 1004.1 |
| 20260509191539 | 58 | 97 | 3.5 | 9.6 | 0.00 | 0.00 | 0.00 | 78 | 1004.5 |
| 20260509190029 | 58 | 94 | 6.1 | 10.4 | 0.00 | 0.00 | 0.00 | 76 | 1004.7 |
| 20260509184534 | 59 | 88 | 0.9 | 7.0 | 0.00 | 0.00 | 0.00 | 75 | 1004.6 |
| 20260509183030 | 59 | 90 | 2.6 | 9.6 | 0.00 | 0.00 | 0.00 | 72 | 1004.6 |
| 20260509181522 | 60 | 104 | 3.5 | 10.4 | 0.00 | 0.00 | 0.00 | 69 | 1004.9 |
| 20260509180020 | 62 | 94 | 2.6 | 7.8 | 0.00 | 0.00 | 0.00 | 70 | 1004.6 |
| 20260509174523 | 62 | 61 | 2.6 | 9.6 | 0.00 | 0.00 | 0.00 | 68 | 1004.7 |
| 20260509173019 | 62 | 78 | 1.7 | 5.2 | 0.00 | 0.00 | 0.00 | 67 | 1004.5 |
| 20260509171517 | 62 | 95 | 1.7 | 6.1 | 0.00 | 0.00 | 0.00 | 67 | 1004.6 |
| 20260509170014 | 63 | 355 | 3.5 | 8.7 | 0.00 | 0.00 | 0.00 | 65 | 1004.6 |